Location: Unspecified
(49.8670°N, 0.0000°E)
Time: 14:01:14
(UTC+00:00)

ISS - Pass Details

Date: 25 May 2019
Orbit: 407 x 418 km, 51.6° (Epoch: 24 June)

Event Time Altitude Azimuth Distance (km) Brightness Sun altitude
Rises 21:18:36 0° 276° (W) 2,355 0.7 -10.9°
Reaches altitude 10° 21:20:42 10° 280° (W) 1,494 -0.2 -11.1°
Maximum altitude 21:24:02 62° 2° (N) 477 -3.3 -11.4°
Drops below altitude 10° 21:27:22 10° 84° (E) 1,501 -1.2 -11.8°
Enters shadow 21:28:25 - 86° (E) 1,923 -0.7 -11.9°
